STARLINK-36975, 67993

Orbit data source: Space-Track

STARLINK-36975, 67993 is a payload satellite owned by SpaceX/Seattle (US) in LEO that was launched on Fri, 27 Feb 2026 UTC via an FALCON 9 launch vehicle from the Air Force Eastern Test Range (AFETR). Payload-class satellites include a variety of spacecraft equipped with specific instruments for various scientific and technological missions. These include communications satellites like Starlink; space stations such as the ISS; scientific satellites like the Hubble; Earth observation satellites from companies like Planet Labs, Umbra, and HawkEye 360; GPS; miniature CubeSats for education and research; and military/defense satellites.

Loading next visibility...
Identifier
67993, 2026-039H
Orbit
LEO
Country
Flag of USUS
Related business
Manufacturer
SpaceX/Seattle
Mission
Operational Commercial Communications
Bus & Motor
STARLINK V2MO, Unknown motor
Mass
575 kg wet, ~530 kg dry
Launch date (UTC)
2026-02-27 (2 months ago)
Launch vehicle
FALCON 9
Launch site
Air Force Eastern Test Range (AFETR)
Object type
Payload
Rocket body
Debris
Shape & HBR
Box + 2 Pan, 17.7 m
Radar Cross Section
36.964 m²

Expand to show TLE details & history
Last TLE update: 7 hours ago

TLE from 7 hours ago
0 STARLINK-36975
1 67993U 26039H   26112.17652124  .00010023  00000-0  37314-3 0  9991
2 67993  42.9951 163.3892 0001752 301.2612  58.8067 15.27591346  8351
Epoch: 2026-04-22T04:14Z
TLE epoch observation values (Epoch: 2026-04-22T04:14:11.435Z)
Latitude
-0.00006°
Longitude
-110.40021°
Altitude
482.168 km
Speed
7.627 km/s
True Right ascension
10h 53m 33s
True Declination
0° 00' 00"
Sunlit
Object was in full shadow at epoch
Visualization orbit readout
Latitude
Unknown
Longitude
Unknown
Altitude
Unknown
Speed
Unknown
Apparent Right ascension
Unknown
Apparent Declination
Unknown
Sunlit
N/A
Visualization observer readout
Local Sidereal Time
18:11:18
Azimuth
Unknown
Elevation
Unknown
Doppler factor
Unknown
Orbital elements
Apogee altitude
486.164 km
Perigee altitude
483.759 km
Semi-major axis
6,863.098 km
Eccentricity
0.00018
Inclination
42.9951°
RAAN
163.3892°
Arg. of periapsis
301.2612°
True anomaly
58.82388°
Mean anomaly
58.8067°
Eccentric anomaly
58.81529°
Mean motion
3.81736 °/min
Orbital period
94.31 mins
BSTAR
0.00037314
Loading maneuver chart data...
Computing Atmospheric mass density...
Loading historical data...
Loading historical data...
Loading historical data...
Loading historical data...
Loading historical data...
Loading historical data...
Loading historical data...

Documentation

Showing up to 5 results
|